This is the latest recevied weather packets stored in our database for station/object N2QKV-13. If no packets are shown the sender has not sent any weather packets the latest 10 day(s).
| Time | Temp. | Humidity | Pressure | Rain* | Wind** | Luminosity | Snow |
|---|---|---|---|---|---|---|---|
| 1777929004 | 18.89° C | 65% | 1010.1 hPa | 0 mm | - | - | - |
| 1777928704 | 18.33° C | 65% | 1010 hPa | 0 mm | - | - | - |
| 1777928404 | 18.33° C | 65% | 1009.9 hPa | 0 mm | - | - | - |
| 1777928104 | 18.33° C | 65% | 1009.9 hPa | 0 mm | - | - | - |
| 1777927803 | 18.33° C | 66% | 1009.9 hPa | 0 mm | - | - | - |
| 1777927504 | 18.33° C | 65% | 1010 hPa | 0 mm | - | - | - |
| 1777927204 | 18.33° C | 63% | 1010 hPa | 0 mm | - | - | - |
| 1777926904 | 18.33° C | 64% | 1009.9 hPa | 0 mm | - | - | - |
| 1777926604 | 18.33° C | 64% | 1010 hPa | 0 mm | - | - | - |
| 1777926304 | 18.33° C | 64% | 1010 hPa | 0 mm | - | - | - |
| 1777926004 | 18.33° C | 63% | 1010 hPa | 0 mm | - | - | - |
| 1777925703 | 18.89° C | 62% | 1010 hPa | 0 mm | - | - | - |
| 1777925404 | 18.89° C | 60% | 1010.3 hPa | 0 mm | - | - | - |
| 1777925104 | 19.44° C | 61% | 1010.1 hPa | 0 mm | - | - | - |
| 1777924803 | 18.89° C | 60% | 1010.3 hPa | 0 mm | - | - | - |
| 1777924503 | 18.89° C | 61% | 1010.2 hPa | 0 mm | - | - | - |
| 1777924204 | 19.44° C | 61% | 1010.3 hPa | 0 mm | - | - | - |
| 1777923904 | 19.44° C | 60% | 1010.3 hPa | 0 mm | - | - | - |
| 1777923603 | 19.44° C | 59% | 1010.5 hPa | 0 mm | - | - | - |
| 1777923304 | 20° C | 58% | 1010.4 hPa | 0 mm | - | - | - |
| 1777923004 | 20° C | 58% | 1010.5 hPa | 0 mm | - | - | - |
| 1777922704 | 20.56° C | 58% | 1010.5 hPa | 0 mm | - | - | - |
| 1777922404 | 20° C | 61% | 1010.7 hPa | 0 mm | - | - | - |
| 1777922104 | 20° C | 59% | 1010.6 hPa | 0 mm | - | - | - |
| 1777921804 | 20.56° C | 60% | 1010.8 hPa | 0 mm | - | - | - |
* Rain latest hour (hover to see other rain measurements)
** Current wind speed in m/s (hover to see current wind gust speed)